Lid_Strength_Index
9 9 9 8 8 7 8 7 9 8 8 8 6 6 5 5 5 5 4 5 4 4 3 3 2 2 1 1 1 1 1 1 1 1 0 0 1 1 0 1 0 1 1 1
10 8 8 8 7 7 7 7 7 7 8 6 5 5 5 5 5 5 5 5 4 3 3 2 2 2 1 1 1 0 1 1 0 1 1 1 1 1 0 1 1 1 1 1
11 9 9 12 9 7 7 7 7 8 8 6 6 6 6 5 5 5 5 4 4 3 3 2 2 1 1 1 -0 1 1 1 1 1 1 1 1 1 1 1 1 1 1 1
12 11 16 9 6 7 7 6 5 5 5 5 6 5 4 4 4 4 4 3 3 3 2 2 1 1 0 0 0 -0 0 0 0 0 1 1 1 1 1 1 1 1 1 1
14 17 13 10 8 9 8 7 5 5 6 5 5 5 5 4 3 3 3 3 2 2 2 1 0 0 1 0 -0 0 1 1 -0 -0 1 1 1 1 1 1 1 1 1 1
12 15 16 10 6 4 5 9 5 5 5 6 5 8 6 4 4 3 2 2 2 2 1 2 2 1 2 2 1 2 1 0 0 0 1 1 1 1 1 1 1 1 1 1
10 12 11 7 5 4 10 10 5 4 5 5 6 6 5 5 3 2 2 2 2 1 2 1 1 1 1 1 2 1 1 0 1 1 1 1 1 1 1 1 1 1 1 1
9 10 13 5 5 8 6 4 4 4 4 6 5 4 4 3 3 3 3 2 2 1 1 1 1 0 1 2 1 1 1 1 1 1 1 1 1 1 1 1 2 2 2 2
8 9 5 4 5 4 4 4 4 4 4 4 4 4 4 5 3 3 2 2 1 2 1 0 1 1 1 1 0 1 1 1 1 1 1 1 1 2 2 2 2 2 2 2
7 5 5 5 4 3 3 3 3 3 3 3 4 4 3 3 3 3 2 2 2 2 2 2 1 1 0 1 1 1 1 1 1 1 1 1 1 1 2 2 2 2 2 2
7 5 4 4 4 3 3 3 3 3 3 3 3 3 3 3 3 2 2 1 2 2 2 2 1 1 1 1 1 1 1 2 2 1 1 1 1 1 1 1 1 2 2 2
7 5 5 5 3 3 4 4 3 3 3 3 3 3 2 2 2 2 2 2 2 2 2 2 1 1 1 0 1 1 2 2 2 2 2 1 2 2 3 6 7 8 8 5
5 3 3 3 3 2 3 3 3 3 2 3 2 2 2 2 2 2 2 2 2 2 2 2 2 1 1 1 1 1 2 2 2 2 2 2 2 2 3 2 5 8 9 9
3 3 4 3 4 2 2 2 2 2 2 2 2 2 2 2 2 2 3 2 2 2 2 2 2 2 1 1 1 1 1 3 1 2 2 2 2 2 2 3 3 2 3 6
3 3 3 3 3 3 2 2 3 3 3 3 3 2 2 3 3 2 2 1 1 2 2 2 2 2 1 1 1 1 2 2 1 2 2 2 2 2 2 2 2 2 2 3
3 3 3 3 3 3 3 3 3 3 3 3 3 3 2 2 2 2 2 2 2 3 2 2 2 1 1 1 2 1 2 2 2 2 2 2 2 2 2 3 3 3 2 2
4 4 4 4 3 4 4 3 3 3 3 3 3 2 2 2 2 2 2 2 2 2 3 2 3 3 3 3 3 3 2 2 2 2 2 2 2 2 2 2 2 3 2 2
2 2 3 3 4 4 4 3 3 3 3 2 2 2 2 3 3 3 3 3 3 3 3 3 3 3 3 3 3 3 3 3 3 2 2 2 2 2 2 2 2 2 2 2
2 3 3 3 3 3 3 3 2 2 2 2 2 2 2 3 3 4 4 4 4 4 4 4 3 4 4 3 3 4 4 5 5 4 3 3 2 2 2 2 2 2 2 2
3 2 2 3 3 2 3 2 2 2 2 2 2 3 3 3 3 4 4 4 4 4 4 4 4 4 5 5 4 5 5 6 6 5 5 4 3 3 2 4 2 2 2 2
3 3 3 2 2 2 2 2 2 3 3 3 3 3 3 2 2 2 3 4 4 3 3 3 3 4 5 5 5 6 6 6 6 6 6 6 5 4 5 4 4 4 3 3
3 3 2 3 2 2 2 2 2 2 3 3 3 2 2 2 1 2 2 4 3 4 3 3 3 4 4 5 6 7 7 8 8 7 7 6 6 6 5 5 4 4 3 2
3 3 3 3 3 2 3 2 3 2 3 3 2 2 2 2 2 4 4 2 3 4 2 2 3 3 3 4 6 8 8 9 9 9 9 8 8 7 6 5 5 5 5 5
2 2 2 2 2 2 3 3 3 3 2 1 1 1 2 3 3 3 2 4 5 4 2 2 3 3 3 3 4 7 9 9 10 10 9 10 8 8 8 8 8 7 7 7
2 2 2 2 2 3 2 2 2 1 1 1 1 1 1 1 2 3 2 2 4 3 2 3 3 3 2 3 3 5 8 9 10 10 10 10 10 10 10 10 10 9 9 10
3 3 2 2 2 2 2 2 2 2 2 2 2 2 2 2 2 2 2 2 1 2 2 2 2 2 2 2 3 3 4 6 9 9 10 10 10 10 10 11 11 11 11 11
2 4 2 2 2 1 1 1 2 2 2 1 2 2 2 2 2 2 2 1 1 1 1 1 1 2 2 1 2 3 3 4 6 7 9 10 10 11 11 11 12 12 12 12